This is the latest recevied weather packets stored in our database for station/object SR9NLI. If no packets are shown the sender has not sent any weather packets the latest 1 day(s).
| Time | Temp. | Humidity | Pressure | Rain* | Wind** | Luminosity | Snow |
|---|---|---|---|---|---|---|---|
| 1778019981 | 13.89° C | 100% | 948.6 hPa | - | 0.89 m/s, 8° | - | - |
| 1778019919 | 13.89° C | 100% | 948.6 hPa | - | 0.89 m/s, 45° | - | - |
| 1778019796 | 13.89° C | 100% | 948.7 hPa | - | 0.89 m/s, 55° | - | - |
| 1778019673 | 13.89° C | 100% | 948.7 hPa | - | 0.45 m/s, 56° | - | - |
| 1778019612 | 13.89° C | 100% | 948.9 hPa | - | 0.45 m/s, 73° | - | - |
| 1778019549 | 13.89° C | 100% | 948.8 hPa | - | 0.45 m/s, 83° | - | - |
| 1778019427 | 14.44° C | 100% | 948.9 hPa | - | 1.34 m/s, 75° | - | - |
| 1778019303 | 14.44° C | 100% | 948.9 hPa | - | 1.34 m/s, 75° | - | - |
| 1778019243 | 14.44° C | 100% | 948.9 hPa | - | 1.34 m/s, 82° | - | - |
| 1778019180 | 14.44° C | 100% | 948.9 hPa | - | 1.34 m/s, 83° | - | - |
| 1778019058 | 14.44° C | 100% | 948.9 hPa | - | 1.79 m/s, 78° | - | - |
| 1778018935 | 14.44° C | 100% | 949.1 hPa | - | 1.34 m/s, 79° | - | - |
| 1778018874 | 14.44° C | 100% | 949 hPa | - | 1.34 m/s, 76° | - | - |
| 1778018811 | 14.44° C | 100% | 949.1 hPa | - | 0.89 m/s, 72° | - | - |
| 1778018688 | 14.44° C | 100% | 949.1 hPa | - | 0.45 m/s, 64° | - | - |
| 1778018565 | 14.44° C | 100% | 949 hPa | - | 0.45 m/s, 353° | - | - |
| 1778018505 | 14.44° C | 100% | 949.1 hPa | - | 0.45 m/s, 349° | - | - |
| 1778018443 | 14.44° C | 100% | 949.2 hPa | - | 0.89 m/s, 357° | - | - |
| 1778018320 | 15° C | 100% | 949.1 hPa | - | 1.34 m/s, 54° | - | - |
| 1778018197 | 15° C | 100% | 949.1 hPa | - | 1.79 m/s, 62° | - | - |
| 1778018136 | 15° C | 100% | 949.3 hPa | - | 1.79 m/s, 59° | - | - |
| 1778018075 | 15° C | 100% | 949.2 hPa | - | 1.79 m/s, 55° | - | - |
| 1778017951 | 15° C | 100% | 949.4 hPa | - | 1.34 m/s, 63° | - | - |
| 1778017828 | 15.56° C | 100% | 949.4 hPa | - | 0.89 m/s, 97° | - | - |
| 1778017768 | 15.56° C | 100% | 949.3 hPa | - | 0.89 m/s, 0° | - | - |
* Rain since midnight (hover to see other rain measurements)
** Current wind speed in m/s (hover to see current wind gust speed)